Disclaimer

Please do not use the information listed here in-flight or in-navigation, as they are not provided to us by the airports but are provided by volunteers, so they might be outdated.

Search


Regions


Airport information page

Radio informations:
RDO - 118.75 MHz

Airport informations:
Latitude: 40° 11' 30.74" N
Longitude: 140° 22' 17.15" E
Elevation: 292 feet - 89 meters
Operating hours: Remarks
Operating agency: Civil government, landing fees and diplomatic clearance may be required
Timezone: UTC+9
Fuel: N/A

Runway information:
11/29 - 6562 x 148 feet< - >2000 x 45 meters

Recent METARs:
RJSR 192300Z 05003KT 350V100 4000 -SN FEW005 SCT010 BKN020 M04/M04 Q1009
RJSR 192334Z 34003KT 8000 -SN FEW005 SCT020 BKN030 M04/M04 Q1009 RMK 1ST005 3SC020 6SC030 A2981

Airport on the map: